CW2434 Weather Reports


Display with metric or nautical units.
time (UTC)temp
F
wind
direction
speed
MPH
gust
MPH
rain 1hr
in
rain 24hr
in
rain mn
in
humidity
%
barometer
mb
20260905183101 74 15 5.0 14.0 0.00 0.00 0.00 63 1010.8
20260905181553 73 42 3.0 10.0 0.00 0.00 0.00 66 1011.1
20260905180108 74 44 4.0 14.0 0.00 0.00 0.00 65 1011.1
20260905174559 73 5 5.0 11.0 0.00 0.00 0.00 67 1011.2
20260905173106 72 294 5.0 10.0 0.00 0.00 0.00 68 1011.3
20260905171601 72 40 3.0 11.0 0.00 0.00 0.00 68 1011.4
20260905170111 72 350 5.0 16.0 0.00 0.00 0.00 67 1011.6
20260905164605 72 0 2.0 13.0 0.00 0.00 0.00 68 1011.5
20260905163117 71 342 2.0 14.0 0.00 0.00 0.00 69 1011.4
20260905161609 70 360 8.0 15.0 0.00 0.00 0.00 68 1011.6
20260905160059 69 34 3.0 13.0 0.00 0.00 0.00 71 1011.5
20260905154611 69 347 4.0 12.0 0.00 0.00 0.00 72 1011.4
20260905153058 70 319 6.0 12.0 0.00 0.00 0.00 73 1011.5
20260905151555 70 339 6.0 13.0 0.00 0.00 0.00 73 1011.6
20260905150100 69 11 3.0 11.0 0.00 0.00 0.00 75 1011.7
20260905144602 68 28 6.0 12.0 0.00 0.00 0.00 76 1011.7
20260905143100 68 333 5.0 16.0 0.00 0.00 0.00 77 1011.6
20260905141606 68 33 3.0 11.0 0.00 0.00 0.00 79 1011.5
20260905134557 66 11 5.0 12.0 0.00 0.00 0.00 82 1011.6
20260905133106 66 288 5.0 11.0 0.00 0.00 0.00 83 1011.7
20260905131603 64 0 2.0 10.0 0.00 0.00 0.00 86 1011.8
20260905130056 63 331 3.0 6.0 0.00 0.00 0.00 89 1011.8
20260905124554 62 0 0.0 4.0 0.00 0.00 0.00 89 1011.8
20260905123105 62 266 1.0 4.0 0.00 0.00 0.00 91 1012.1
20260905121558 61 0 0.0 0.0 0.00 0.00 0.00 92 1012.0
20260905120100 60 0 0.0 0.0 0.00 0.00 0.00 92 1011.9
20260905114603 59 0 0.0 0.0 0.00 0.00 0.00 93 1011.7
20260905113054 59 0 0.0 0.0 0.00 0.00 0.00 92 1011.4
20260905111555 59 0 0.0 0.0 0.00 0.00 0.00 92 1011.4
20260905110055 59 0 0.0 0.0 0.00 0.00 0.00 92 1011.2
20260905104557 59 0 0.0 0.0 0.00 0.00 0.00 91 1011.0
20260905103104 59 0 0.0 0.0 0.00 0.00 0.00 90 1010.9
20260905101602 60 0 0.0 0.0 0.00 0.00 0.00 89 1010.7
20260905100120 60 0 0.0 0.0 0.00 0.00 0.00 89 1010.6
20260905094600 60 0 0.0 0.0 0.00 0.00 0.00 89 1010.6
20260905093055 60 0 0.0 0.0 0.00 0.00 0.00 88 1010.6
20260905091601 61 0 0.0 0.0 0.00 0.00 0.00 86 1010.7
20260905090100 61 0 0.0 0.0 0.00 0.00 0.00 85 1010.6
20260905084559 62 0 0.0 0.0 0.00 0.01 0.00 84 1010.7
20260905083114 62 0 0.0 1.0 0.00 0.01 0.00 84 1010.4
20260905081612 62 0 0.0 3.0 0.00 0.01 0.00 83 1010.5
20260905080104 62 5 0.0 4.0 0.00 0.01 0.00 83 1010.6
20260905074558 62 0 0.0 4.0 0.00 0.27 0.00 83 1010.5
20260905073100 62 0 0.0 2.0 0.00 0.27 0.00 84 1010.6
20260905071556 61 0 0.0 0.0 0.00 0.27 0.00 85 1010.8
20260905064620 62 0 0.0 2.0 0.00 0.46 0.00 84 1011.0
20260905063056 61 0 0.0 0.0 0.00 0.46 0.00 84 1011.1
20260905061608 61 0 0.0 0.0 0.00 0.46 0.00 85 1011.1
20260905060108 61 0 0.0 0.0 0.00 0.46 0.00 87 1011.4
20260905054706 61 0 0.0 0.0 0.00 0.46 0.00 86 1011.6
20260905053059 62 0 0.0 0.0 0.00 0.46 0.00 84 1011.7
20260905051600 62 0 0.0 0.0 0.00 0.46 0.00 85 1011.8
20260905050059 63 0 0.0 0.0 0.00 0.46 0.00 85 1011.8
20260905044609 64 0 0.0 0.0 0.00 0.46 0.00 79 1011.8
20260905043104 63 0 0.0 0.0 0.00 0.46 0.00 82 1011.9
20260905041556 63 0 0.0 0.0 0.00 0.46 0.00 84 1011.8
20260905040109 64 0 0.0 0.0 0.00 0.46 0.00 84 1012.0
20260905034607 64 0 0.0 0.0 0.00 0.46 0.46 82 1011.9
20260905033055 65 0 0.0 0.0 0.00 0.46 0.46 82 1011.8
20260905031552 64 0 0.0 0.0 0.00 0.46 0.46 81 1011.6
20260905030100 66 0 0.0 0.0 0.00 0.46 0.46 80 1011.6
20260905024612 66 0 0.0 0.0 0.00 0.46 0.46 77 1011.7
20260905023104 66 0 0.0 0.0 0.00 0.46 0.46 77 1011.7
20260905021559 66 0 0.0 0.0 0.00 0.46 0.46 77 1011.6
20260905020059 66 0 0.0 0.0 0.00 0.46 0.46 79 1011.6
20260905014557 66 0 0.0 0.0 0.00 0.46 0.46 85 1011.5
20260905013104 66 0 0.0 0.0 0.00 0.46 0.46 84 1011.7
20260905011600 68 0 0.0 1.0 0.00 0.46 0.46 80 1011.7
20260905010107 67 0 0.0 0.0 0.00 0.46 0.46 79 1011.7
20260905004558 67 0 0.0 3.0 0.00 0.46 0.46 80 1011.8
20260905003100 66 0 0.0 4.0 0.00 0.46 0.46 84 1011.8
20260905001558 67 65 0.0 1.0 0.00 0.46 0.46 84 1011.7
20260905000059 67 0 0.0 0.0 0.00 0.46 0.46 84 1011.4
20260904234558 68 0 0.0 1.0 0.00 0.46 0.46 84 1011.3
20260904233107 69 0 0.0 3.0 0.00 0.46 0.46 84 1011.1
20260904231608 71 0 0.0 3.0 0.00 0.46 0.46 81 1011.2
20260904230104 72 52 0.0 2.0 0.00 0.46 0.46 76 1011.4
20260904224606 74 0 0.0 0.0 0.00 0.46 0.46 70 1011.3
20260904223103 75 0 0.0 3.0 0.00 0.46 0.46 66 1011.1
20260904221608 76 355 1.0 4.0 0.00 0.46 0.46 64 1011.1
20260904220105 77 0 0.0 5.0 0.00 0.46 0.46 62 1011.0
20260904214600 76 5 2.0 5.0 0.00 0.46 0.46 64 1010.9
20260904213106 77 309 2.0 8.0 0.00 0.46 0.46 62 1010.8
20260904211559 76 28 2.0 5.0 0.00 0.46 0.46 64 1011.1
20260904210104 78 5 3.0 9.0 0.00 0.46 0.46 59 1011.1
20260904204606 78 352 1.0 7.0 0.00 0.46 0.46 58 1011.3
20260904203101 78 16 2.0 8.0 0.00 0.46 0.46 59 1011.3
20260904201616 77 5 4.0 8.0 0.00 0.46 0.46 62 1011.2
20260904200115 78 0 1.0 9.0 0.00 0.46 0.46 61 1011.3
20260904194606 79 333 5.0 11.0 0.00 0.46 0.46 58 1011.2
20260904193101 78 285 3.0 9.0 0.00 0.46 0.46 60 1011.4
20260904191558 78 360 2.0 10.0 0.00 0.46 0.46 60 1011.4
20260904190056 76 319 1.0 5.0 0.00 0.46 0.46 63 1011.6
20260904184616 77 333 2.0 8.0 0.00 0.46 0.46 65 1011.6